Regional Weather Roundup
Issued by NWS

Home | Current Version | Previous Version | Graphics & Text | Print | Product List | Glossary On
Versions: 1 2 3 4 5 6 7 8 9 10 11 12 13 14 15 16 17 18 19 20 21 22 23 24 25 26 27 28 29 30 31 32 33 34 35 36 37 38 39 40 41 42 43 44 45 46 47 48 49 50
000
ASUS43 KMPX 201001
RWRMN
WEATHER ROUNDUP FOR MINNESOTA
NATIONAL WEATHER SERVICE TWIN CITIES/CHANHASSEN MN
400 AM CST FRI JAN 20 2017


NOTE: "FAIR" INDICATES FEW OR NO CLOUDS BELOW 12,000 FEET WITH NO
SIGNIFICANT WEATHER AND/OR OBSTRUCTIONS TO VISIBILITY. N/A MEANS
CURRENT SKY AND/OR WEATHER CONDITIONS ARE NOT AVAILABLE.

MNZ060>063-068>070-201100-
   Twin Cities Metro

CITY           SKY/WX    TMP DP  RH WIND       PRES   REMARKS
TWIN CITIES    CLOUDY    35  34  96 SE5       29.64F FOG     WCI  31
ST PAUL        CLOUDY    35  35 100 SE7       29.65F FOG     WCI  29
CRYSTAL        CLOUDY    36  33  89 SE7       29.62F FOG
BLAINE         CLOUDY    37  37 100 SE3       29.63F FOG
LAKEVILLE      DRIZZLE   34  34 100 SE3       29.63S
EDEN PRAIRIE   CLOUDY    36  34  92 SE8       29.62F FOG
SOUTH ST PAUL  CLOUDY    36  35  98 CALM      29.64F FOG
LAKE ELMO      CLOUDY    36  36 100 SE5       29.64F FOG
$$
MNZ001>005-007-008-013>017-022>024-027-028-201100-
   Northwest Minnesota

CITY           SKY/WX    TMP DP  RH WIND       PRES   REMARKS
BEMIDJI        CLOUDY    33  33 100 CALM      29.60S FOG
HALLOCK        CLOUDY    34  34 100 S12       29.54S FOG     WCI  25
ROSEAU         CLOUDY    36  30  80 S6        29.58F FOG
WARROAD        CLOUDY    34  30  86 S6        29.60S FOG     WCI  29
THIEF RVR FALL CLOUDY    34  33  96 SE10      29.58S FOG     WCI  26
CROOKSTON      CLOUDY    34  34 100 SE12      29.56F FOG     WCI  25
FOSSTON        CLOUDY    34  34 100 SE8       29.58F WCI  27
DETROIT LAKES  FOG       34  34 100 SE6       29.57F VSB 3/4 WCI  29
MOORHEAD       CLOUDY    36  34  93 SE8       29.56F FOG
PARK RAPIDS    FOG       34  31  88 E5        29.58S VSB 1/2 WCI  30
MAHNOMEN       CLOUDY    35  34  97 SE7       29.57F WCI  29
$$
MNZ006-009>011-018-025>026-201100-
   North Central Minnesota

CITY           SKY/WX    TMP DP  RH WIND       PRES   REMARKS
BAUDETTE       FOG       35  34  96 S6        29.60S VSB 1   WCI  30
FLAG ISLAND    CLOUDY    34  34 100 S12       29.59S FOG     WCI  25
INTL FALLS     CLOUDY    32  31  96 CALM      29.62F FOG
WASKISH        FOG       36  36 100 CALM      29.61F VSB 3/4
BIG FORK       FOG       34  34 100 S3        29.62F VSB 1/2
LONGVILLE      CLOUDY    34  32  93 SE3       29.61F FOG
GRAND RAPIDS   CLOUDY    31  30  96 CALM      29.64F FOG
CRANE LAKE     PTCLDY    21  21 100 CALM      29.65F FOG
ORR            PTCLDY    30  28  93 CALM      29.62S FOG
COOK           PTCLDY    28  28 100 SE3       29.65S FOG
WALKER         FOG       33  32  99 CALM      29.60F VSB 1/2
$$
MNZ012-019>021-037-201100-
   Northeast Minnesota

CITY           SKY/WX    TMP DP  RH WIND       PRES   REMARKS
DULUTH         CLOUDY    35  32  88 S8        29.64F WCI  29
ELY            CLEAR     28  28 100 S5        29.66R FOG     WCI  23
HIBBING        CLOUDY    25  24  96 CALM      29.64S FOG
EVELETH        CLOUDY    20  18  93 CALM      29.66S
DULUTH HARBOR  CLOUDY    34  32  93 CALM      29.68F FOG
TWO HARBORS    HAZE      34  28  80 CALM      29.65F VSB 1/2
SILVER BAY     CLOUDY    27  27 100 CALM      29.65F FOG
GRAND MARAIS     N/A     28  26  92 N3        29.70F
G MARAIS ARPRT CLOUDY    25  21  86 CALM      29.66F FOG
$$
MNZ029>031-032-039>041-046>048-054>057-064-201100-
   West Central Minnesota

CITY           SKY/WX    TMP DP  RH WIND       PRES   REMARKS
FERGUS FALLS   CLOUDY    36  36 100 SE9       29.60F FOG
WHEATON        CLOUDY    39  39 100 E10       29.57F FOG
MORRIS         FOG       34  34 100 SE9       29.56F VSB 1/4 WCI  26
ALEXANDRIA     FOG       33  33 100 SE7       29.59S VSB 3/4 WCI  27
ELBOW LAKE     CLOUDY    33  33 100 SE8       29.57F FOG     WCI  26
WADENA         FOG       32  32 100 SE6       29.59S VSB 1/4 WCI  26
GLENWOOD       FOG       34  34 100 SE9       29.59S VSB 1/2 WCI  26
APPLETON       CLOUDY    36  34  93 SE7       29.57S FOG
BENSON         CLOUDY    36  34  93 SE8         N/A
ORTONVILLE     FOG       34  32  93 CALM      29.55F VSB 3/4
MADISON        FOG       36  36 100 SE8       29.56F VSB 1/2
WILLMAR        FOG       34  34 100 SE9       29.61S VSB 1   WCI  26
$$
MNZ033>034-036-042>043-049>051-058-059-201100-
   Central Minnesota

CITY           SKY/WX    TMP DP  RH WIND       PRES   REMARKS
ST CLOUD       LGT RAIN  34  34 100 SE8       29.62S FOG     WCI  27
SAUK CENTRE    LGT RAIN  33  33 100 SE6       29.60S VSB 1/2 WCI  27
PAYNESVILLE    LGT RAIN  33  33 100 SE7       29.61F WCI  27
AITKIN         CLOUDY    37  32  81 S5        29.61F
PINE RIVER     FOG       34  34 100 E5        29.65S VSB 3/4 WCI  30
BRAINERD       CLOUDY    34  34 100 SE6       29.62S FOG     WCI  29
STAPLES        CLOUDY    34  34 100 SE3       29.61S FOG
LONG PRAIRIE   LGT SNOW  32  32 100 E6        29.60F VSB 3/4 WCI  26
LITTLE FALLS   FOG       34  32  93 E5        29.62S VSB 1   WCI  30
LITCHFIELD     DRIZZLE   36  34  93 SE7       29.62S
BUFFALO        DRIZZLE   35  33  94 SE5       29.63F WCI  31
MAPLE LAKE     RAIN      35  35  99 MISG      29.63S
HUTCHINSON     DRIZZLE   34  34 100 SE8       29.62F WCI  27
$$
MNZ037-044-045-052-053-201100-
   East Central Minnesota

CITY           SKY/WX    TMP DP  RH WIND       PRES   REMARKS
PRINCETON      RAIN      36  34  93 E3        29.63F
MORA           CLOUDY    34  32  93 SE3       29.66S FOG
CAMBRIDGE      DRIZZLE   37  32  81 E5        29.62F
RUSH CITY      CLOUDY    34  34 100 CALM      29.65F FOG
MOOSE LAKE     CLOUDY    36  32  87 SE5       29.63F
HINCKLEY       CLOUDY    36  36 100 E5        29.64F FOG
CLOQUET        CLOUDY    34  30  86 E3        29.64F FOG
MCGREGOR       CLOUDY    36  32  87 SE5       29.63F
$$
MNZ071>073-080-081-089-090-097-098-201100-
   Southwest Minnesota

CITY           SKY/WX    TMP DP  RH WIND       PRES   REMARKS
MONTEVIDEO     FOG       34  34 100 S7        29.59S VSB 1/4 WCI  28
GRANITE FALLS  FOG       35  34  99 E5        29.59F VSB 1/2 WCI  31
CANBY          FOG       34  34  99 CALM      29.57F VSB 1/2
MARSHALL       CLOUDY    34  34 100 SE8       29.58S FOG     WCI  27
REDWOOD FALLS  FOG       34  32  92 E7        29.60R VSB 3/4 WCI  28
OLIVIA         FOG       34  32  93 E9        29.60S VSB 1   WCI  26
PIPESTONE      CLOUDY    36  36 100 S3        29.53F FOG
WINDOM         FOG       34  34 100 SE7       29.59R VSB 1/2 WCI  28
WORTHINGTON    FOG       35  34  96 SE5       29.57S VSB 1/4 WCI  31
JACKSON        FOG       32  32 100 SE9       29.60R VSB 1/2 WCI  24
TRACY          FOG       35  35 100 SE3       29.58S VSB 1
SLAYTON        FOG       34  34 100 SE3       29.57S VSB 1/4
$$
MNZ065>067-074>077-082>085-091>093-201100-
   South Central Minnesota

CITY           SKY/WX    TMP DP  RH WIND       PRES   REMARKS
MANKATO        MIX PCPN  34  34 100 SE9       29.63S FOG     WCI  26
NEW ULM        DRIZZLE   34  34 100 SE6       29.61F WCI  29
ST JAMES       CLOUDY    34  34 100 SE6       29.62S FOG     WCI  29
FAIRMONT       MIX PCPN  33  33 100 SE7       29.62S FOG     WCI  27
GLENCOE        LGT RAIN  35  35 100 SE6       29.62S WCI  30
FARIBAULT      DRIZZLE   36  34  93 SE7       29.63F
OWATONNA       DRIZZLE   36  34  93 SE7       29.62F
WASECA         CLOUDY    34  34 100 SE8       29.64S FOG     WCI  27
ALBERT LEA     CLOUDY    34  34 100 SE9       29.62S FOG     WCI  26
$$
MNZ078>079-086>088-094>096-201100-
   Southeast Minnesota

CITY           SKY/WX    TMP DP  RH WIND       PRES   REMARKS
ROCHESTER      CLOUDY    33  33 100 SE9       29.63F FOG     WCI  25
RED WING       DRIZZLE   36  34  93 SE5       29.65S
STANTON        LGT RAIN  36  34  91 SE6       29.62F
DODGE CENTER   CLOUDY    34  34 100 CALM      29.62F FOG
WINONA         CLOUDY    34  34 100 SE3       29.67S FOG
AUSTIN         CLOUDY    34  32  93 SE6       29.62S FOG     WCI  29
PRESTON        CLOUDY    33  32  96 SE5       29.64S FOG     WCI  28
$$
ABBREVIATIONS USED IN REMARKS
   TC - TEMPERATURES IN CELSIUS
  WCI - WIND CHILL INDEX
   HX - HEAT INDEX
  VSB - VISIBILITY
$$



USA.gov is the U.S. government's official web portal to all federal, state and local government web resources and services.